SCP
1 1 1 1 1 1 1 1 1 1 1 1 1 1 1 1 1 1 1 1 1 1 1 1 1 1 1 1 1 1 1 1 1 1 1 1 1 1 1 1 0 0 0
1 1 1 1 1 1 1 1 1 1 1 1 1 1 1 1 1 1 1 1 1 1 1 1 1 1 1 1 1 1 1 1 1 1 1 1 1 1 1 1 0 0 0
1 1 1 1 1 1 1 1 1 1 1 1 1 1 1 1 1 1 1 1 1 1 1 1 1 1 1 1 1 1 1 1 1 1 1 1 1 1 1 1 0 0 0
1 1 1 1 1 1 1 1 1 1 1 1 1 1 1 1 1 1 1 1 1 1 1 1 1 1 1 1 1 1 1 1 1 1 1 1 1 1 1 1 0 0 0
1 1 2 2 1 1 1 1 1 1 1 1 1 1 1 1 1 1 1 1 1 1 1 1 1 1 1 1 1 1 1 1 1 1 1 1 1 1 1 1 0 0 0
1 1 2 2 2 1 1 1 1 1 1 1 1 1 1 1 1 1 1 1 1 1 1 1 1 1 1 1 1 1 1 1 1 1 1 1 1 1 1 1 0 0 0
1 1 1 2 2 2 1 1 1 1 1 1 1 1 1 1 1 1 1 1 1 1 1 1 1 1 1 1 1 1 1 1 0 0 1 1 1 1 1 1 0 0 0
1 1 1 2 2 2 1 1 1 1 1 1 1 1 1 1 1 1 1 1 1 1 1 1 1 1 1 1 1 1 1 0 0 0 0 1 1 1 1 1 1 0 0
1 1 1 1 1 1 1 1 1 1 1 1 1 1 1 1 1 1 1 1 1 1 1 1 1 1 1 1 1 1 1 0 0 0 0 0 0 1 1 1 1 0 0
1 1 1 1 1 1 1 1 1 1 1 1 1 1 1 1 1 0 0 0 0 0 1 0 0 1 1 1 1 1 0 0 0 0 0 0 0 0 0 0 0 0 0
1 1 1 1 1 1 1 1 1 1 1 1 1 1 0 0 0 0 0 0 0 0 0 0 0 0 1 1 1 1 0 0 0 0 0 0 0 0 0 0 0 0 0
1 1 1 1 1 1 1 1 1 1 1 1 1 1 0 0 0 0 0 0 0 0 0 0 0 0 0 0 1 0 0 0 0 0 0 0 0 0 0 0 0 0 1
1 1 1 1 1 1 1 1 1 1 1 1 1 1 1 0 0 0 0 0 0 0 0 0 0 0 0 0 0 0 0 0 0 0 0 0 0 0 0 0 0 0 1
2 2 1 1 1 1 1 1 1 1 1 1 1 1 0 0 0 0 0 0 0 0 0 0 0 0 0 0 0 0 0 0 0 0 0 1 0 0 0 0 0 0 1
2 2 1 1 1 1 1 1 1 1 1 1 1 1 0 0 0 0 0 0 0 0 0 0 0 0 0 0 0 0 0 0 0 0 1 1 1 0 0 0 0 1 1
2 2 2 1 1 1 1 1 1 1 1 1 1 1 1 1 1 1 1 0 0 0 0 0 0 0 0 0 0 0 0 0 0 0 0 1 1 1 0 0 1 1 1
2 2 2 2 1 1 1 1 1 1 1 1 1 1 1 1 1 1 1 1 0 0 0 0 0 0 0 0 0 0 0 0 0 0 0 0 0 1 1 1 1 1 1
2 3 3 2 2 2 1 1 1 1 1 1 1 1 1 1 1 1 1 1 1 1 0 0 1 1 0 0 0 0 0 0 0 0 0 0 0 0 1 1 1 1 1
3 3 3 3 3 2 2 2 1 1 1 1 2 2 2 1 1 1 1 1 1 1 1 1 1 1 1 1 0 0 1 1 1 1 0 0 0 1 1 1 1 1 1
3 4 4 3 3 3 2 2 2 2 2 2 2 2 2 1 1 1 1 1 1 1 1 1 1 1 1 1 1 1 1 1 1 1 1 1 1 1 1 1 1 1 1
3 4 4 4 4 3 3 3 3 2 2 2 2 2 1 1 1 1 1 1 1 1 1 1 1 1 2 2 1 1 1 1 1 1 1 1 1 1 1 1 1 1 1
3 3 3 3 4 3 3 3 3 3 2 2 2 2 1 1 1 1 1 1 1 1 1 1 1 1 2 2 2 2 2 1 1 1 1 1 1 1 1 1 1 1 1
3 2 2 3 3 3 3 3 3 3 2 2 2 1 1 1 1 1 1 1 1 1 1 1 1 1 1 2 2 2 2 2 2 2 2 2 1 1 1 1 1 1 1
2 2 2 3 4 4 3 3 3 3 2 2 2 2 2 2 2 2 2 2 2 2 2 2 2 2 1 1 2 2 2 2 2 2 2 2 1 1 1 1 1 1 1
2 2 3 4 5 4 3 3 3 3 3 3 3 3 3 3 2 2 3 4 3 3 2 2 2 2 2 2 2 2 2 2 2 2 2 2 1 1 1 1 1 1 1
2 2 3 3 4 5 4 4 4 4 4 3 4 4 4 4 3 3 4 4 4 3 2 2 2 2 2 2 2 3 3 2 2 2 2 2 1 1 1 1 2 2 2
Wind_Speed
10 13 13 12 12 13 13 13 14 14 14 14 13 13 13 13 13 13 13 13 13 13 13 13 13 14 14 14 14 14 15 14 15 15 16 16 16 15 15 14 13 15 16
13 14 13 12 13 13 13 13 13 13 13 13 13 13 13 13 12 12 12 13 13 13 13 14 14 14 14 14 14 14 14 14 14 15 16 15 15 14 12 10 11 13 15
15 15 14 12 13 13 13 12 13 13 13 13 12 12 12 12 12 12 12 13 13 13 13 13 14 14 14 14 14 14 14 13 13 12 11 12 13 13 13 14 15 15 14
14 14 13 14 13 13 12 12 12 12 12 12 12 12 12 11 12 12 12 12 13 13 13 13 13 14 14 14 13 13 13 12 10 8 7 11 12 13 13 13 14 14 13
13 13 15 13 13 13 12 12 12 12 12 11 11 11 11 11 11 12 12 12 12 12 13 13 13 13 13 13 13 12 12 10 6 4 9 10 11 12 12 13 13 13 13
14 13 16 13 13 12 12 12 11 11 11 11 11 11 11 11 11 11 11 12 12 12 13 13 13 13 12 12 12 12 10 7 6 8 8 9 11 11 12 12 13 12 12
14 14 16 13 12 12 12 11 11 10 10 10 10 10 10 10 11 11 11 12 12 12 12 12 12 12 11 11 11 10 8 2 4 8 7 9 11 10 11 11 11 12 12
13 14 15 13 12 11 11 11 10 10 10 10 10 10 10 10 10 10 11 11 11 11 11 11 11 11 10 10 10 9 6 3 7 8 8 10 11 9 10 11 10 11 11
12 13 13 14 12 11 10 9 9 9 9 9 10 9 10 10 10 10 10 10 11 10 10 10 10 10 9 9 8 7 4 3 4 6 8 8 9 9 10 10 10 10 10
11 11 11 11 11 11 11 10 9 9 9 9 9 9 9 10 10 10 10 10 10 9 9 9 9 9 8 8 7 6 5 5 4 6 6 9 9 8 9 9 9 9 10
10 9 10 11 10 9 9 11 10 10 9 9 9 9 8 7 9 8 11 10 9 8 8 8 8 7 7 8 6 5 6 1 5 4 6 11 8 8 8 8 8 9 9
12 11 9 9 9 8 7 8 6 7 8 6 6 7 5 5 4 7 11 8 8 8 8 7 7 7 6 6 8 7 2 3 3 4 8 9 7 7 8 7 7 7 7
12 11 10 9 8 7 5 5 4 4 5 5 6 5 4 4 5 5 6 7 7 8 6 8 7 4 2 2 1 2 2 2 2 3 8 8 6 6 7 7 7 7 6
12 11 10 10 8 6 5 4 4 4 4 4 5 5 5 3 3 3 3 4 4 3 3 3 2 2 1 1 1 1 2 1 1 2 7 9 6 6 6 7 7 7 7
12 11 10 9 8 7 5 4 4 4 4 5 4 4 3 3 3 3 2 2 2 3 4 3 2 2 2 3 2 1 1 1 1 1 6 9 7 6 6 7 7 7 7
12 11 10 10 9 8 6 5 4 4 3 3 4 5 5 3 3 3 4 3 2 2 2 2 3 3 3 2 2 2 2 2 2 2 3 8 9 8 7 7 7 7 8
11 10 10 10 9 9 8 7 5 5 5 4 4 4 5 4 3 3 3 3 3 3 3 3 3 3 3 4 3 3 3 2 2 3 3 3 7 10 9 9 9 8 8
11 10 10 9 10 9 7 6 5 5 4 4 4 4 5 4 4 4 3 3 3 4 4 3 4 3 3 3 3 3 3 3 4 4 4 4 4 5 10 11 10 10 10
11 11 11 10 10 10 9 7 6 4 4 4 4 4 5 6 6 5 4 3 4 4 4 4 3 3 3 4 4 4 4 4 4 5 5 5 5 5 5 11 12 10 11
11 11 11 11 10 9 8 6 5 6 5 5 5 5 5 5 7 6 5 5 5 4 4 4 3 4 4 4 5 3 4 4 5 5 6 6 5 7 7 6 8 11 14
11 12 12 11 10 9 7 7 7 7 6 5 6 6 6 7 6 6 6 5 5 5 5 6 5 5 5 4 4 4 5 6 6 5 6 5 6 6 6 6 6 6 8
12 12 12 12 11 10 7 6 5 5 5 5 5 5 7 7 7 7 7 6 6 5 6 6 5 4 4 4 4 4 4 5 6 7 6 6 6 6 7 8 7 7 7
11 12 11 11 11 10 9 6 5 5 4 5 6 6 7 7 8 7 7 7 6 6 6 7 6 7 5 5 5 4 4 3 2 4 5 6 5 5 6 6 8 8 9
11 10 10 11 11 10 9 9 9 7 7 6 5 5 6 7 8 8 8 7 7 6 5 7 7 5 6 6 4 5 6 4 4 3 4 5 6 6 6 5 6 7 7
10 10 10 10 10 10 10 10 9 8 6 5 5 5 6 6 7 8 8 7 7 7 7 7 5 7 6 7 5 5 5 5 7 6 5 4 4 4 5 5 5 5 5
9 9 10 11 10 10 10 10 10 9 8 7 6 6 6 5 6 7 7 7 7 7 7 7 7 8 7 7 6 5 5 5 5 6 6 6 5 4 4 3 4 4 5
Wind_Direction
131 120 120 118 116 114 112 111 111 111 111 112 110 107 104 102 101 101 102 102 102 103 101 100 101 100 99 100 101 102 102 103 104 104 104 105 107 108 112 118 120 107 108
130 123 122 119 118 116 113 112 111 111 111 111 110 108 106 104 103 102 103 104 103 101 99 99 100 99 100 101 101 103 104 104 106 108 112 110 107 109 109 103 90 105 113
131 127 130 121 119 117 114 114 113 112 112 111 110 109 106 105 103 103 103 103 102 101 100 99 99 100 100 101 102 102 102 103 108 119 133 118 110 108 105 101 102 112 113
133 132 128 124 122 120 116 115 114 113 112 112 111 110 108 105 104 103 102 101 101 101 101 101 101 101 102 102 102 102 102 105 116 155 128 109 111 108 109 109 110 111 113
129 125 123 130 126 124 121 118 117 115 114 113 112 110 109 107 105 103 102 102 103 103 104 104 102 101 102 103 103 103 105 109 135 139 97 100 103 112 113 113 113 113 114
136 135 126 134 129 127 125 121 119 117 115 114 113 111 109 107 106 105 104 104 106 106 105 105 105 104 104 106 105 106 110 135 174 103 105 109 109 116 117 116 116 116 116
140 134 131 136 132 130 127 124 121 118 115 114 112 112 112 110 109 108 105 107 109 108 107 108 108 106 106 107 107 109 115 175 103 101 107 101 102 116 119 119 119 118 117
141 137 130 136 134 132 128 126 124 121 118 117 113 113 113 112 111 110 110 109 109 108 109 109 109 108 106 107 109 113 127 226 113 103 98 96 103 118 118 117 120 122 119
143 138 143 145 141 136 131 130 130 126 122 118 116 114 113 111 110 111 112 112 111 111 112 110 109 106 105 108 112 116 116 303 106 105 106 102 112 122 124 123 124 125 125
149 147 147 147 146 154 147 142 138 132 127 122 120 119 119 120 119 121 127 115 115 116 116 115 112 110 110 112 115 125 157 229 109 112 106 106 120 127 131 131 129 129 129
155 154 158 152 155 158 150 143 151 145 138 143 137 134 157 148 135 145 107 117 121 120 119 119 119 120 130 133 128 152 194 163 100 91 92 105 128 134 135 136 137 137 135
165 167 163 160 154 162 153 150 161 159 149 164 139 151 148 119 118 113 117 128 128 128 131 127 134 164 200 151 147 188 166 119 115 115 102 121 138 142 140 142 143 144 142
171 171 168 162 162 170 158 162 158 153 148 156 144 150 129 148 143 143 146 146 152 164 160 149 179 185 155 97 118 136 106 119 113 114 115 136 148 153 153 155 157 156 158
177 177 173 164 169 174 172 164 172 166 162 159 149 175 156 159 151 136 152 143 160 160 144 167 164 149 142 137 147 121 138 151 110 102 120 148 162 169 169 170 173 172 172
180 181 177 175 172 174 178 196 180 175 170 159 160 168 178 172 167 149 145 161 182 156 167 184 177 162 191 192 193 184 187 137 141 154 132 157 172 182 185 183 184 183 184
185 184 179 183 180 182 182 192 188 187 178 182 178 171 192 188 164 172 174 179 192 192 176 184 181 188 207 214 216 211 234 210 168 205 168 159 178 191 198 198 193 195 196
187 185 186 186 184 189 192 196 196 198 188 191 180 182 199 204 185 201 191 195 192 184 178 204 199 207 210 208 209 213 216 220 203 206 214 191 176 186 199 204 203 205 208
186 186 191 193 185 188 195 202 208 209 197 199 194 190 200 206 205 221 212 204 195 204 199 200 221 213 216 227 220 222 213 202 213 214 214 209 210 187 185 196 208 212 216
191 188 190 196 191 190 191 198 208 207 214 214 206 201 198 209 210 222 227 210 213 218 218 228 201 228 221 230 228 211 225 219 212 216 221 222 208 216 201 177 197 213 220
192 190 193 193 194 192 191 196 208 210 210 217 218 210 212 215 216 225 222 212 227 222 221 230 231 236 241 238 252 236 233 231 229 220 225 223 224 220 222 206 198 204 213
193 191 192 194 189 190 192 199 205 205 209 212 219 211 217 227 220 226 238 212 230 232 232 229 227 227 229 234 247 244 236 227 227 228 229 231 225 226 227 222 228 227 201
193 195 194 195 192 195 197 202 212 218 217 214 225 216 222 225 225 222 230 231 228 232 230 236 236 244 238 222 245 254 245 216 214 221 221 225 233 227 225 220 222 229 244
193 196 195 194 192 197 193 198 206 210 225 216 219 214 220 225 227 235 231 236 236 236 229 232 235 237 244 233 235 253 270 267 254 206 215 224 228 232 236 228 221 221 229
192 193 193 192 193 195 193 201 207 215 223 224 223 219 220 224 227 226 232 232 236 239 234 235 229 239 246 246 232 236 257 290 280 272 223 208 217 227 239 243 232 222 225
186 186 186 187 191 192 197 203 210 219 226 229 225 222 228 224 226 229 230 233 234 241 241 244 241 240 239 246 246 240 240 244 249 260 268 262 236 225 222 230 239 239 231
181 183 184 185 191 193 197 204 210 218 222 228 225 224 223 225 225 225 228 233 234 237 236 235 236 235 241 247 252 251 247 249 246 247 254 254 255 251 231 230 234 235 238